Location: PSU-Greenbush Astrophysical Observatory
(37.5140°N, 94.9880°W)
Time: 12:40:01
(UTC-06:00)

BEESAT - Visible Passes

Search period start: 27 February 2021 00:00
Search period end: 09 March 2021 00:00
Orbit: 699 x 709 km, 98.6° (Epoch: 27 February)

Date Brightness Start Highest point End Pass type
(mag) Time Alt. Az. Time Alt. Az. Time Alt. Az.
27 Feb ? 05:36:32 10° SE 05:40:29 27° ENE 05:44:27 10° NNE visible
27 Feb ? 19:14:52 10° NNE 19:19:39 82° ESE 19:24:24 10° SSW visible
27 Feb ? 20:56:08 10° NW 20:56:40 10° WNW 20:57:12 10° WNW visible
28 Feb ? 06:18:50 10° SSE 06:23:34 76° ENE 06:28:19 10° N visible
28 Feb ? 19:58:29 10° N 20:02:48 35° WNW 20:07:06 10° SW visible
01 Mar ? 05:25:55 10° ESE 05:29:26 21° ENE 05:32:58 10° NNE visible
01 Mar ? 19:03:47 10° NNE 19:08:30 61° ESE 19:13:12 10° S visible
01 Mar ? 20:43:24 10° NW 20:45:40 14° WNW 20:47:58 10° W visible
02 Mar ? 06:07:49 10° SSE 06:12:27 57° ENE 06:17:06 10° N visible
02 Mar ? 19:47:10 10° N 19:51:43 46° WNW 19:56:14 10° SW visible
03 Mar ? 05:15:31 10° ESE 05:18:25 16° ENE 05:21:19 10° NNE visible
03 Mar ? 18:52:45 10° NNE 18:57:19 46° E 19:01:53 10° S visible
03 Mar ? 20:31:33 10° NNW 20:34:40 18° WNW 20:37:46 10° WSW visible
04 Mar ? 05:56:53 10° SE 06:01:20 43° ENE 06:05:49 10° N visible
04 Mar ? 19:35:55 10° N 19:40:36 61° WNW 19:45:18 10° SSW visible
05 Mar ? 05:05:26 10° E 05:07:24 13° ENE 05:09:23 10° NE visible
05 Mar ? 18:41:47 10° NNE 18:46:08 34° E 18:50:27 10° SSE visible
05 Mar ? 20:19:57 10° NNW 20:23:38 23° WNW 20:27:18 10° WSW visible
06 Mar ? 05:46:03 10° SE 05:50:15 33° ENE 05:54:29 10° N visible
06 Mar ? 19:24:42 10° N 19:29:29 82° WNW 19:34:14 10° SSW visible
07 Mar ? 20:08:29 10° N 20:12:34 29° WNW 20:16:39 10° SW visible
08 Mar ? 05:35:20 10° ESE 05:39:12 25° ENE 05:43:04 10° NNE visible
08 Mar ? 19:13:34 10° NNE 19:18:20 76° ESE 19:23:06 10° S visible
08 Mar ? 20:54:06 10° NW 20:55:24 11° WNW 20:56:41 10° WNW visible
